[Iaude] MPEC C06: 2014 UK231 [a=43.58,e=0.07,i=7.0,H=8.1]

mpec at mpcdb1.cfa.harvard.edu mpec at mpcdb1.cfa.harvard.edu
Sat Feb 3 22:09:17 EST 2018


M.P.E.C. 2018-C06                                Issued 2018 Feb. 4, 03:06 UT
 
     The Minor Planet Electronic Circulars contain information on unusual
         minor planets and routine data on comets.  They are published
    on behalf of Division F of the International Astronomical Union by the
          Minor Planet Center, Smithsonian Astrophysical Observatory,
                          Cambridge, MA 02138, U.S.A.

             Prepared using the Tamkin Foundation Computer Network

                              MPC at CFA.HARVARD.EDU
            URL https://www.minorplanetcenter.net/    ISSN 1523-6714


                                  2014 UK231
 
Observations:
     K14UN1K @C2013 09 02.41327 01 32 30.322+14 04 49.80         26.4 rqEC006568
     K14UN1K @C2013 09 02.45665 01 32 30.228+14 04 49.36         24.7 rqEC006568
     K14UN1K @C2013 09 03.43268 01 32 27.371+14 04 38.50         24.4 rqEC006568
     K14UN1K @C2013 09 03.47930 01 32 27.235+14 04 37.97         25.0 rqEC006568
     K14UN1K @C2013 11 01.48519 01 28 30.903+13 44 39.51         25.0 rqEC006568
     K14UN1K @C2013 11 28.27503 01 26 51.666+13 34 19.78         24.8 rqEC006568
     K14UN1K @C2013 12 29.24308 01 25 52.290+13 26 33.47         24.7 rqEC006568
     K14UN1K @C2014 01 02.22987 01 25 50.256+13 26 02.95         24.6 rqEC006568
     K14UN1K @C2014 01 02.27696 01 25 50.243+13 26 02.34         24.6 rqEC006568
     K14UN1K @C2014 01 02.35718 01 25 50.209+13 26 02.18         24.5 rqEC006568
     K14UN1K @C2014 01 03.23668 01 25 49.965+13 25 56.49         24.7 rqEC006568
     K14UN1K @C2014 07 26.50994 01 37 41.154+14 37 29.45         24.7 rqEC006568
     K14UN1K @C2014 07 26.55326 01 37 41.150+14 37 29.70         25.1 rqEC006568
     K14UN1K @C2014 07 26.59650 01 37 41.147+14 37 30.19         24.7 rqEC006568
     K14UN1K @C2014 08 24.44612 01 37 09.469+14 37 47.99         24.8 rqEC006568
     K14UN1K @C2014 08 24.52005 01 37 09.299+14 37 47.51         24.2 rqEC006568
     K14UN1K @C2014 08 30.42439 01 36 55.028+14 37 02.71         24.8 rqEC006568
     K14UN1K @C2014 08 30.53270 01 36 54.731+14 37 01.80         24.7 rqEC006568
     K14UN1K @C2014 09 18.45130 01 35 54.373+14 32 58.55         24.3 rqEC006568
     K14UN1K @C2014 09 18.49406 01 35 54.215+14 32 57.86         24.4 rqEC006568
     K14UN1K @C2014 09 23.49224 01 35 35.198+14 31 30.99         24.8 rqEC006568
     K14UN1K*@C2014 10 22.27410 01 33 32.622+14 21 04.73         24.3 rqEC006568
     K14UN1K @C2014 10 22.31909 01 33 32.414+14 21 03.34         24.7 rqEC006568
     K14UN1K @C2014 10 22.36390 01 33 32.212+14 21 02.24         24.3 rqEC006568
     K14UN1K @C2014 10 23.45625 01 33 27.406+14 20 35.68         24.5 rqEC006568
     K14UN1K @C2014 10 25.47218 01 33 18.566+14 19 46.55         24.5 rqEC006568
     K14UN1K @C2014 11 21.24351 01 31 30.399+14 09 02.83         25.6 rqEC006568
     K14UN1K @C2015 12 07.43260 01 34 56.857+14 35 23.19         24.9 wqEC006568
     K14UN1K @C2016 01 03.25961 01 34 13.940+14 29 18.57         24.4 rqEC006568
     K14UN1K @C2016 01 03.32552 01 34 13.912+14 29 17.91         24.3 rqEC006568
 
Observer details:
568 Mauna Kea.  Observers M. T. Bannister, J. J. Kavelaars, B. J. Gladman,
    J.-M. Petit, T. Burdullis.  Measurers S. D. J. Gwyn, Y.-T. Chen,
    M. Alexandersen.  3.6-m Canada-France-Hawaii Telescope + CCD.
 
Orbital elements:
2014 UK231
Epoch 2018 Mar. 23.0 TT = JDT 2458200.5                 MPC
M 233.44927              (2000.0)            P               Q
n   0.00342555     Peri.  172.80836     -0.95895509     -0.28286377
a  43.5828779      Node   350.68814     +0.25367552     -0.82454765
e   0.0671620      Incl.    7.03945     +0.12670386     -0.49000944
P 288              H    8.1           G   0.15           U   5
Residuals in seconds of arc
130902 568  0.3-  0.1-    140103 568  0.1-  0.0     140923 568  0.1-  0.0
130902 568  0.2+  0.1-    140726 568  0.1+  0.1-    141022 568  0.1+  0.4+
130903 568  0.0   0.0     140726 568  0.0   0.2-    141022 568  0.0   0.1+
130903 568  0.1+  0.0     140726 568  0.0   0.0     141022 568  0.1-  0.1+
131101 568  0.2+  0.1-    140824 568  0.0   0.0     141023 568  0.0   0.0
131128 568  0.0   0.2+    140824 568  0.0   0.0     141025 568  0.1+  0.1+
131229 568  0.1+  0.1+    140830 568  0.0   0.1-    141121 568  0.1-  0.0
140102 568  0.1-  0.0     140830 568  0.1-  0.0     151207 568  0.1+  0.2+
140102 568  0.0   0.3-    140918 568  0.0   0.0     160103 568  0.1-  0.1-
140102 568  0.0   0.1+    140918 568  0.0   0.0     160103 568  0.0   0.2-

Ephemeris:
2014 UK231               a,e,i = 43.58, 0.07, 7                  q = 40.656
Date    TT    R. A. (2000) Decl.     Delta      r     Elong.  Phase     V
2018 01 05    01 42 42.9 +15 31 23  45.1907 45.4555   105.0     1.2    24.8
...
2018 01 20    01 42 45.6 +15 30 16  45.4465 45.4536    89.8     1.2    24.9
...
2018 01 28    01 42 55.3 +15 30 25  45.5839 45.4525    81.7     1.2    24.9
...
2018 02 03    01 43 06.1 +15 30 53  45.6853 45.4518    75.7     1.2    24.9
2018 02 04    01 43 08.2 +15 31 00  45.7019 45.4516    74.7     1.2    24.9
2018 02 05    01 43 10.4 +15 31 07  45.7185 45.4515    73.7     1.2    24.9
...
2018 02 11    01 43 25.3 +15 31 58  45.8161 45.4507    67.7     1.2    24.9
...
2018 02 19    01 43 49.5 +15 33 35  45.9398 45.4497    59.7     1.1    24.9
...
2018 03 06    01 44 46.9 +15 37 52  46.1440 45.4477    45.0     0.9    24.9

A. U. Tomatic                (C) Copyright 2018 MPC           M.P.E.C. 2018-C06



More information about the Iaude mailing list